Powrót do katalogu

STARLINK-35591

AktywnyŁącznośćVLEO
NORAD 66984·PAYLOAD·🇺🇸 United States

Wystrzelony Dec 8, 2025 z Cape Canaveral Space Force Station

Loading…

Następne Przeloty (najbliższe 24 godziny)

TLE

ŚwieżeSource: CelesTrak SupGP

Epoka: Sep 15, 2026, 04:01 UTC

1 66984C 25288AB  26258.16784722  .00003625  00000+0  13129-3 0  2580
2 66984  43.0046  33.6553 0001787 271.5972  42.9490 15.27574120    16

Śledź STARLINK-35591 w czasie rzeczywistym z AllMySat

Download on the App Store